Back to catalog

SDS-4

AliveScienceSSO
NORAD 38339·PAYLOAD·🇯🇵 Japan

Launched May 17, 2012 from Tanegashima Space Center

Loading…

Next Passes (next 24 hours)

TLE

FreshSource: Space-Track

Epoch: Sep 14, 2026, 14:32 UTC

1 38339U 12025C   26257.60589898  .00000515  00000-0  82476-4 0  9993
2 38339  98.1382 354.1175 0007330  21.8095 338.3425 14.75942257769177

Track SDS-4 in real time with AllMySat

Download on the App Store